Regional Weather Roundup
Issued by NWS Cleveland, OH

Home | Current Version | Previous Version | Graphics & Text | Print | Product List | Glossary On
Versions: 1 2 3 4 5 6 7 8 9 10 11 12 13 14 15 16 17 18 19 20 21 22 23 24 25 26 27 28 29 30 31 32 33 34 35 36 37 38 39 40 41 42 43 44 45 46 47 48 49 50
000
ASUS41 KCLE 222210
RWRCLE
OHIO REGIONAL WEATHER ROUNDUP
NATIONAL WEATHER SERVICE CLEVELAND, OH
600 PM EDT FRI MAY 22 2015

NOTE: "FAIR" INDICATES FEW OR NO CLOUDS BELOW 12,000 FEET WITH NO
SIGNIFICANT WEATHER AND/OR OBSTRUCTIONS TO VISIBILITY.

OHZ001>008-015>018-024>027-034-035-043-044-222300-
   NORTHWEST OHIO

CITY           SKY/WX    TMP DP  RH WIND       PRES   REMARKS
DEFIANCE       SUNNY     70  33  25 N8        30.22S
FINDLAY        SUNNY     71  32  23 NW9G18    30.21R
TOLEDO EXPRESS SUNNY     69  29  22 NW10G20   30.22R
TOLEDO EXEC    SUNNY     69  26  20 N12G18    30.23R
LIMA           SUNNY     69  33  26 NW5       30.21S
$$

OHZ009>014-019>023-028>033-038-089-222300-
   NORTHEAST OHIO

CITY           SKY/WX    TMP DP  RH WIND       PRES   REMARKS
CLE-HOPKINS    SUNNY     59  34  39 NE9       30.27R
CLE-LAKEFRONT  SUNNY     58  33  39 NE9       30.26R
CUY CO. ARPT   SUNNY     59  32  36 NE12      30.27R
LORAIN-ELYRIA  SUNNY     62  32  32 NE9       30.24R
ASHTABULA      SUNNY     54  23  30 N10G22    30.27R
AKRON-CANTON   SUNNY     64  31  28 N12G17    30.23R
WOOSTER        SUNNY     65  27  23 N16       30.23R
MANSFIELD        N/A    N/A N/A N/A MISG      30.22R
YOUNGSTOWN     MOSUNNY   59  33  37 NW14      30.23R
$$

OHZ042-051>053-060>062-070>072-077>081-222300-
  SOUTHWEST OHIO

CITY           SKY/WX    TMP DP  RH WIND       PRES   REMARKS
CINC-COVINGTON PTSUNNY   73  45  36 W12G17    30.21S
CINC-LUNKEN    PTSUNNY   74  45  35 W13       30.21R
HAMILTON       PTSUNNY   75  48  38 W6        30.21R
DAYTON         MOSUNNY   74  43  32 NW14      30.20R
WRIGHT-PAT AFB MOSUNNY   73  43  33 W13G21    30.18S
DAYTON GENERAL MOSUNNY   74  40  29 NW14G20   30.19R
WILMINGTON     MOSUNNY   72  43  35 W16       30.19S
$$

OHZ036-037-039>041-045>050-054>059-063>069-073>076-082>088-222300-
  CENTRAL AND SOUTHEAST OHIO

CITY           SKY/WX    TMP DP  RH WIND       PRES   REMARKS
COLUMBUS       PTSUNNY   69  48  47 N3        30.17S
OSU AIRPORT    MOSUNNY   71  46  40 NW10G21   30.17S
BOLTON FIELD   PTSUNNY   73  48  40 NW12G17   30.19R
RICKENBACK AFB MOSUNNY   70  48  46 N6        30.18R
NEWARK         MOSUNNY   70  48  45 N8        30.18R
MARION         SUNNY     71  29  21 N15       30.21R
LANCASTER      PTSUNNY   66  56  70 NE7       30.19S
ZANESVILLE     PTSUNNY   71  47  42 N7        30.18S
NEW PHILLY     SUNNY     68  33  27 NW7       30.21R
$$



USA.gov is the U.S. government's official web portal to all federal, state and local government web resources and services.